Flag for U.S.A. Weather past 2 weeks in Youngstown, Ohio, U.S.A.

Now
69 °F

Partly cloudy.


Feels Like: 69 °F
Forecast: 65 / 86 °F
Wind: 5 mph from Southwest

Location: Youngstown-Warren Regional Airport

Current Time: Aug 31, 2015 at 3:21:17 AM

Latest Report: Aug 31, 2015 at 2:51 AM


Visibility: 10 mi

Pressure: 30.05 "Hg

Humidity: 84%

Dew point: 64 °F

Location of YoungstownLocation

Historic Weather in Youngstown — Graph

°F

Youngstown temperature yesterday

Maximum temperature yesterday: 82 °F (at 4:51 PM)
Minimum temperature yesterday: 66 °F (at 12:51 AM)
Average temperature yesterday: 72 °F

Past Weeks' High & Low Weather Summary

 TemperatureHumidityPressure
High88 °F (Aug 17, 3:51 PM)100% (Aug 16, 5:51 AM)30.23 "Hg (Aug 16, 5:51 AM)
Low49 °F (Aug 22, 4:51 AM)38% (Aug 23, 3:51 PM)29.77 "Hg (Aug 20, 3:51 AM)
Average68 °F73%30.04 "Hg
* Reported Aug 16 1:51 AM — Aug 31 1:51 AM, Youngstown, Weather by CustomWeather, © 2015

Note: Actual official high and low records may vary slightly from our data, if they occured in-between our weather recording intervals... More about our weather records

Advertising

Youngstown weather history for previous 24 hours

 ConditionsComfort  
Time TempWeatherWind HumidityBarometerVisibility
1:51 AM
Mon, Aug 31
69 °FOvercast.3 mph87%30.06 "Hg10 mi
12:51 AM71 °FPassing clouds.8 mph81%30.06 "Hg10 mi
11:51 PM
Sun, Aug 30
71 °FPassing clouds.6 mph84%30.06 "Hg10 mi
10:51 PM73 °FPassing clouds.5 mph79%30.06 "Hg10 mi
9:51 PM70 °FPartly cloudy.6 mph84%30.06 "Hg8 mi
8:51 PM69 °FScattered clouds.3 mph93%30.06 "Hg10 mi
7:51 PM74 °FBroken clouds.No wind82%30.04 "Hg10 mi
6:51 PM80 °FBroken clouds.5 mph62%30.03 "Hg10 mi
5:51 PM80 °FBroken clouds.5 mph60%30.04 "Hg10 mi
4:51 PM82 °FPartly sunny.8 mph58%30.04 "Hg10 mi
3:51 PM81 °FBroken clouds.5 mph62%30.06 "Hg10 mi
2:51 PM81 °FBroken clouds.10 mph65%30.07 "Hg10 mi
1:51 PM79 °FBroken clouds.7 mph67%30.09 "Hg10 mi
12:51 PM76 °FBroken clouds.5 mph74%30.10 "Hg10 mi
11:51 AM76 °FPartly sunny.8 mph77%30.12 "Hg10 mi
10:51 AM73 °FPartly sunny.8 mph81%30.12 "Hg10 mi
9:51 AM70 °FFog.6 mph90%30.11 "Hg5 mi
8:51 AM68 °FFog.5 mph93%30.10 "Hg2 mi
7:58 AM67 °FLight rain. Fog.5 mph93%30.12 "Hg2 mi
6:51 AM66 °FLight rain. Fog.7 mph96%30.09 "Hg5 mi
5:51 AM66 °FLight rain. Fog.3 mph96%30.09 "Hg3 mi
4:51 AM66 °FLight rain. Fog.No wind96%30.07 "Hg4 mi
3:51 AM67 °FThunderstorms. Fog.3 mph93%30.07 "Hg2 mi
Weather by CustomWeather, © 2015

See weather overviewHow to use our weather pages